Greeley, CO

2:53 AM MDT on August 27, 2016 (GMT -0600)
Greeley-Weld County

Weather History for KGXY - October, 2012

Change the Weather History Date:

Tuesday, October 23, 2012

  Actual Average Record
Temperature  
Mean Temperature 52 °F -  
Max Temperature 77 °F - 84 °F (2003)
Min Temperature 28 °F - 19 °F (2006)
Degree Days  
Heating Degree Days 12    
Month to date heating degree days  
Cooling Degree Days 0    
Month to date cooling degree days  
Growing Degree Days 2 (Base 50)    
Moisture  
Dew Point 29 °F    
Average Humidity 46    
Maximum Humidity 87    
Minimum Humidity 12    
Precipitation  
Precipitation 0.00 in - 0.32 in (1975)
Sea Level Pressure  
Sea Level Pressure 29.75 in    
Wind  
Wind Speed 6 mph (NNE)    
Max Wind Speed 25 mph    
Max Gust Speed 38 mph    
Visibility 10 miles    
Events      
T = Trace of Precipitation, MM = Missing Value Source: NWS Daily Summary

Daily Weather History Graph

Daily Weather History Graph

Search for Another Location

Airport or City:

Trip Planner

Search our weather history database for the weather conditions in past years. The results will help you decide how hot, cold, wet, or windy it might be!

Date:

Astronomy

Oct. 23, 2012 Rise Set
Actual Time 7:18 AM MDT 6:06 PM MDT
Civil Twilight 6:50 AM MDT 6:33 PM MDT
Nautical Twilight 6:19 AM MDT 7:05 PM MDT
Astronomical Twilight 5:47 AM MDT 7:37 PM MDT
Moon 2:52 PM MDT (10/23) 1:12 AM MDT (10/23)
Length of Visible Light 11h 43m
Length of Day
10h 47m
Waxing Gibbous, 67% of the Moon is Illuminated
Oct 23
Waxing Gibbous
Oct 29
Full
Nov 6
Last Quarter
Nov 13
New
Nov 20
First Quarter

Hourly Weather History & Observations

Time (MDT) Temp. Windchill Dew Point Humidity Pressure Visibility Wind Dir Wind Speed Gust Speed Precip Events Conditions
12:15 AM 39.2 °F 34.2 °F 33.8 °F 81% 29.73 in 10.0 mi WNW 6.9 mph - N/A   Clear
12:35 AM 39.2 °F 35.0 °F 32.0 °F 75% 29.73 in 10.0 mi NNW 5.8 mph - N/A   Clear
12:55 AM 37.4 °F - 30.2 °F 75% 29.73 in 10.0 mi Calm Calm - N/A   Clear
1:15 AM 37.4 °F - 30.2 °F 75% 29.72 in 10.0 mi Calm Calm - N/A   Clear
1:55 AM 35.6 °F 29.9 °F 30.2 °F 81% 29.73 in 10.0 mi NW 6.9 mph - N/A   Clear
2:15 AM 35.6 °F - 30.2 °F 81% 29.74 in 10.0 mi Calm Calm - N/A   Clear
5:35 AM 32.0 °F 28.7 °F 26.6 °F 80% 29.73 in 10.0 mi WNW 3.5 mph - N/A   Clear
6:35 AM 30.2 °F 23.4 °F 26.6 °F 86% 29.73 in 10.0 mi NW 6.9 mph - N/A   Clear
6:55 AM 28.4 °F 22.2 °F 24.8 °F 86% 29.73 in 10.0 mi NNW 5.8 mph - N/A   Clear
7:15 AM 30.2 °F 26.7 °F 24.8 °F 80% 29.72 in 10.0 mi NE 3.5 mph - N/A   Clear
7:35 AM 30.2 °F - 24.8 °F 80% 29.73 in 10.0 mi Calm Calm - N/A   Clear
7:55 AM 32.0 °F 28.7 °F 26.6 °F 80% 29.74 in 10.0 mi North 3.5 mph - N/A   Clear
8:15 AM 33.8 °F 29.6 °F 28.4 °F 81% 29.75 in 10.0 mi NW 4.6 mph - N/A   Clear
8:35 AM 35.6 °F - 30.2 °F 81% 29.76 in 10.0 mi Calm Calm - N/A   Clear
8:55 AM 37.4 °F 34.9 °F 33.8 °F 87% 29.76 in 9.0 mi West 3.5 mph - N/A   Clear
9:15 AM 41.0 °F - 35.6 °F 81% 29.76 in 8.0 mi Calm Calm - N/A   Clear
9:55 AM 48.2 °F - 37.4 °F 66% 29.75 in 10.0 mi SSE 4.6 mph - N/A   Clear
10:15 AM 48.2 °F - 37.4 °F 66% 29.75 in 10.0 mi Calm Calm - N/A   Clear
10:35 AM 53.6 °F - 37.4 °F 54% 29.76 in 10.0 mi Calm Calm - N/A   Clear
10:55 AM 55.4 °F - 37.4 °F 51% 29.75 in 10.0 mi SSW 4.6 mph - N/A   Clear
11:15 AM 60.8 °F - 37.4 °F 42% 29.76 in 10.0 mi Calm Calm - N/A   Clear
11:35 AM 60.8 °F - 39.2 °F 45% 29.75 in 10.0 mi SE 5.8 mph - N/A   Clear
11:55 AM 62.6 °F - 39.2 °F 42% 29.75 in 10.0 mi NE 4.6 mph - N/A   Clear
12:15 PM 64.4 °F - 37.4 °F 37% 29.74 in 10.0 mi ENE 4.6 mph - N/A   Clear
12:35 PM 69.8 °F - 35.6 °F 28% 29.73 in 10.0 mi ESE 3.5 mph - N/A   Clear
12:55 PM 71.6 °F - 33.8 °F 25% 29.72 in 10.0 mi SSW 4.6 mph - N/A   Clear
1:15 PM 75.2 °F - 30.2 °F 19% 29.71 in 10.0 mi South 11.5 mph 18.4 mph N/A   Clear
1:55 PM 75.2 °F - 21.2 °F 13% 29.69 in 10.0 mi WNW 5.8 mph - N/A   Clear
2:15 PM 75.2 °F - 19.4 °F 12% 29.69 in 10.0 mi Calm Calm - N/A   Clear
2:35 PM 77.0 °F - 21.2 °F 12% 29.69 in 10.0 mi SSE 4.6 mph - N/A   Clear
2:55 PM 77.0 °F - 21.2 °F 12% 29.68 in 10.0 mi South 4.6 mph - N/A   Clear
3:15 PM 75.2 °F - 21.2 °F 13% 29.68 in 10.0 mi SSE 8.1 mph - N/A   Clear
3:35 PM 77.0 °F - 21.2 °F 12% 29.68 in 10.0 mi SSE 9.2 mph - N/A   Clear
3:55 PM 75.2 °F - 23.0 °F 14% 29.69 in 10.0 mi SE 12.7 mph - N/A   Clear
4:15 PM 73.4 °F - 24.8 °F 16% 29.69 in 10.0 mi ESE 10.4 mph - N/A   Clear
4:35 PM 73.4 °F - 26.6 °F 18% 29.69 in 10.0 mi ESE 10.4 mph - N/A   Clear
4:55 PM 71.6 °F - 26.6 °F 19% 29.69 in 10.0 mi ESE 9.2 mph - N/A   Clear
5:15 PM 73.4 °F - 24.8 °F 16% 29.70 in 10.0 mi ESE 9.2 mph - N/A   Clear
5:35 PM 69.8 °F - 24.8 °F 18% 29.70 in 10.0 mi ESE 6.9 mph - N/A   Clear
5:55 PM 64.4 °F - 26.6 °F 24% 29.70 in 5.0 mi ENE 5.8 mph - N/A   Clear
6:15 PM 60.8 °F - 26.6 °F 27% 29.71 in 2.5 mi NE 6.9 mph - N/A   Clear
6:35 PM 57.2 °F - 24.8 °F 29% 29.73 in 10.0 mi NNE 8.1 mph - N/A   Clear
6:55 PM 57.2 °F - 24.8 °F 29% 29.74 in 10.0 mi NNE 8.1 mph - N/A   Clear
7:15 PM 60.8 °F - 28.4 °F 29% 29.76 in 8.0 mi NNE 20.7 mph 29.9 mph N/A   Clear
7:35 PM 60.8 °F - 30.2 °F 31% 29.76 in 10.0 mi NNE 21.9 mph 29.9 mph N/A   Clear
7:55 PM 57.2 °F - 30.2 °F 36% 29.77 in 10.0 mi NNE 24.2 mph 31.1 mph N/A   Clear
8:15 PM 57.2 °F - 28.4 °F 33% 29.78 in 10.0 mi NNE 23.0 mph 29.9 mph N/A   Clear
8:35 PM 55.4 °F - 28.4 °F 36% 29.80 in 10.0 mi North 19.6 mph 27.6 mph N/A   Clear
8:55 PM 55.4 °F - 30.2 °F 38% 29.80 in 10.0 mi NNE 24.2 mph 33.4 mph N/A   Clear
9:15 PM 53.6 °F - 30.2 °F 41% 29.82 in 10.0 mi NNE 25.3 mph 33.4 mph N/A   Clear
9:35 PM 53.6 °F - 30.2 °F 41% 29.83 in 10.0 mi North 21.9 mph 38.0 mph N/A   Clear
9:55 PM 51.8 °F - 28.4 °F 41% 29.84 in 10.0 mi North 19.6 mph 31.1 mph N/A   Clear
10:15 PM 50.0 °F - 28.4 °F 43% 29.85 in 10.0 mi North 16.1 mph - N/A   Clear
10:35 PM 48.2 °F - 28.4 °F 46% 29.87 in 10.0 mi North 12.7 mph - N/A   Clear
10:55 PM 48.2 °F - 28.4 °F 46% 29.88 in 10.0 mi NNW 10.4 mph - N/A   Clear
11:15 PM 46.4 °F 41.5 °F 28.4 °F 50% 29.90 in 10.0 mi NNW 10.4 mph - N/A   Clear
11:35 PM 46.4 °F 42.4 °F 28.4 °F 50% 29.92 in 10.0 mi NW 8.1 mph - N/A   Clear